TimeCEST,TemperatureF,Dew PointF,Humidity,Sea Level PressureIn,VisibilityMPH,Wind Direction,Wind SpeedMPH,Gust SpeedMPH,PrecipitationIn,Events,Conditions,WindDirDegrees,DateUTC
12:00 AM,60,42,39,30.08,,North,5.8,,,,,0,2013-05-04 22:00:00
1:00 AM,57,42,46,30.09,,North,3.5,,,,,10,2013-05-04 23:00:00
2:00 AM,57,42,45,30.09,,North,4.6,,,,,10,2013-05-05 00:00:00
3:00 AM,57,41,43,30.08,,North,3.5,,,,,10,2013-05-05 01:00:00
4:00 AM,55,41,48,30.07,,North,3.5,,,,,10,2013-05-05 02:00:00
6:00 AM,55,40,46,30.07,,NNE,3.5,,,,,20,2013-05-05 04:00:00
7:00 AM,54,41,51,30.09,,NNE,2.3,,,,,20,2013-05-05 05:00:00
8:00 AM,57,43,48,30.09,31,NE,2.3,,,,Clear,50,2013-05-05 06:00:00
9:00 AM,60,42,41,30.09,,SE,2.3,,,,,140,2013-05-05 07:00:00
10:00 AM,61,41,35,30.09,,South,2.3,,,,,180,2013-05-05 08:00:00
12:00 PM,68,44,30,30.05,,ESE,4.6,,,,,120,2013-05-05 10:00:00
1:00 PM,72,43,24,30.03,,South,3.5,,,,,190,2013-05-05 11:00:00
2:00 PM,71,41,23,30.02,25,SSW,3.5,,,,Scattered Clouds,210,2013-05-05 12:00:00
3:00 PM,71,45,29,30.00,,SW,5.8,,,,,230,2013-05-05 13:00:00
4:00 PM,69,47,35,30.00,,West,9.2,,,,,260,2013-05-05 14:00:00
6:00 PM,70,49,36,29.99,,South,2.3,,,,,170,2013-05-05 16:00:00
7:00 PM,67,49,41,29.98,,South,3.5,,,,,190,2013-05-05 17:00:00
8:00 PM,65,49,45,29.99,11,WSW,2.3,,,,Overcast,240,2013-05-05 18:00:00
9:00 PM,64,50,50,30.03,,WSW,11.5,,,,,240,2013-05-05 19:00:00
10:00 PM,60,52,68,30.07,,WSW,16.1,,,,,250,2013-05-05 20:00:00